,,Stat6,,Stat2,,Stat8,,Stat9,,Stat10,,Wind1,,Wind1,
time,status,PA1M_AVG,status,PR1M_SUM,status,RH1M_AVG,status,SR1M_AVG,status,TA1M_AVG,status,W1dAve1m,status,W1sAve1m,
2003-09-26, 00:00:00,VALID,918.607,VALID,0,VALID,98.0229,VALID,0,VALID,19.3741,VALID,63,VALID,0.178544,
2003-09-26, 00:01:00,VALID,918.595,VALID,0,VALID,98.173,VALID,0,VALID,19.3738,VALID,63,VALID,0.112537,
2003-09-26, 00:02:00,VALID,918.572,VALID,0,VALID,98.323,VALID,-0.0169808,VALID,19.384,VALID,63,VALID,0,
2003-09-26, 00:03:00,VALID,918.574,VALID,0,VALID,98.4336,VALID,-0.0339617,VALID,19.3972,VALID,63,VALID,0,
2003-09-26, 00:04:00,VALID,918.562,VALID,0,VALID,98.4324,VALID,0,VALID,19.3969,VALID,62,VALID,0,
2003-09-26, 00:05:00,VALID,918.536,VALID,0,VALID,98.3764,VALID,-0.0169808,VALID,19.3776,VALID,62,VALID,0,
2003-09-26, 00:06:00,VALID,918.515,VALID,0,VALID,98.3421,VALID,-0.0339617,VALID,19.345,VALID,61,VALID,0.294207,
2003-09-26, 00:07:00,VALID,918.498,VALID,0,VALID,98.3434,VALID,-0.0169808,VALID,19.3425,VALID,38,VALID,0.405078,
2003-09-26, 00:08:00,VALID,918.496,VALID,0,VALID,98.3904,VALID,-0.0169808,VALID,19.3393,VALID,17,VALID,0.448038,
2003-09-26, 00:09:00,VALID,918.484,VALID,0,VALID,98.4845,VALID,0,VALID,19.342,VALID,14,VALID,0.294727,
2003-09-26, 00:10:00,VALID,918.46,VALID,0,VALID,98.5099,VALID,-0.0169808,VALID,19.3584,VALID,14,VALID,0.0883557,
2003-09-26, 00:11:00,VALID,918.449,VALID,0,VALID,98.5303,VALID,-0.0509425,VALID,19.3582,VALID,14,VALID,0,
2003-09-26, 00:12:00,VALID,918.435,VALID,0,VALID,98.5341,VALID,-0.0679233,VALID,19.3713,VALID,14,VALID,0,
2003-09-26, 00:13:00,VALID,918.437,VALID,0,VALID,98.5137,VALID,-0.0509425,VALID,19.378,VALID,14,VALID,0,
2003-09-26, 00:14:00,VALID,918.423,VALID,0,VALID,98.5112,VALID,0,VALID,19.381,VALID,14,VALID,0.078497,
2003-09-26, 00:15:00,VALID,918.428,VALID,0,VALID,98.4934,VALID,-0.0339617,VALID,19.4006,VALID,12,VALID,0.327567,
2003-09-26, 00:16:00,VALID,918.422,VALID,0,VALID,98.4324,VALID,-0.0509425,VALID,19.3997,VALID,316,VALID,0.56392,
2003-09-26, 00:17:00,VALID,918.417,VALID,0,VALID,98.3917,VALID,0,VALID,19.4098,VALID,297,VALID,0.554878,
2003-09-26, 00:18:00,VALID,918.425,VALID,0,VALID,98.3751,VALID,-0.0339617,VALID,19.4006,VALID,288,VALID,0.715278,
2003-09-26, 00:19:00,VALID,918.42,VALID,0,VALID,98.4018,VALID,0,VALID,19.3773,VALID,289,VALID,0.578711,
2003-09-26, 00:20:00,VALID,918.417,VALID,0,VALID,98.5239,VALID,-0.0339617,VALID,19.3939,VALID,291,VALID,0.445503,
2003-09-26, 00:21:00,VALID,918.408,VALID,0,VALID,98.557,VALID,-0.0169808,VALID,19.3875,VALID,291,VALID,0.387005,
2003-09-26, 00:22:00,VALID,918.391,VALID,0,VALID,98.5239,VALID,-0.0169808,VALID,19.3711,VALID,291,VALID,0.438953,
2003-09-26, 00:23:00,VALID,918.392,VALID,0,VALID,98.5036,VALID,-0.0339617,VALID,19.3525,VALID,291,VALID,0.160633,
2003-09-26, 00:24:00,VALID,918.374,VALID,0,VALID,98.5989,VALID,-0.0339617,VALID,19.3395,VALID,291,VALID,0.00109012,
2003-09-26, 00:25:00,VALID,918.378,VALID,0,VALID,98.6485,VALID,-0.0169808,VALID,19.3358,VALID,291,VALID,0.166243,
2003-09-26, 00:26:00,VALID,918.368,VALID,0,VALID,98.7197,VALID,0,VALID,19.3358,VALID,291,VALID,0,
2003-09-26, 00:27:00,VALID,918.348,VALID,0,VALID,98.735,VALID,-0.0339617,VALID,19.3229,VALID,291,VALID,0,
2003-09-26, 00:28:00,VALID,918.343,VALID,0,VALID,98.6969,VALID,0,VALID,19.3194,VALID,291,VALID,0,
2003-09-26, 00:29:00,VALID,918.326,VALID,0,VALID,98.6752,VALID,0,VALID,19.3105,VALID,291,VALID,0,
2003-09-26, 00:30:00,VALID,918.307,VALID,0,VALID,98.632,VALID,0,VALID,19.2804,VALID,291,VALID,0,
2003-09-26, 00:31:00,VALID,918.291,VALID,0,VALID,98.6574,VALID,0.0169808,VALID,19.271,VALID,291,VALID,0,
2003-09-26, 00:32:00,VALID,918.285,VALID,0,VALID,98.7096,VALID,0,VALID,19.2583,VALID,291,VALID,0,
2003-09-26, 00:33:00,VALID,918.275,VALID,0,VALID,98.7477,VALID,-0.0169808,VALID,19.2452,VALID,291,VALID,0,
2003-09-26, 00:34:00,VALID,918.266,VALID,0,VALID,98.7579,VALID,0,VALID,19.239,VALID,291,VALID,0.0144817,
2003-09-26, 00:35:00,VALID,918.25,VALID,0,VALID,98.7999,VALID,0,VALID,19.2325,VALID,291,VALID,0.245998,
2003-09-26, 00:36:00,VALID,918.247,VALID,0,VALID,98.824,VALID,-0.0339617,VALID,19.229,VALID,291,VALID,0.164063,
2003-09-26, 00:37:00,VALID,918.23,VALID,0,VALID,98.8673,VALID,0,VALID,19.2101,VALID,291,VALID,0.447316,
2003-09-26, 00:38:00,VALID,918.228,VALID,0,VALID,98.9258,VALID,0,VALID,19.2032,VALID,293,VALID,0.592988,
2003-09-26, 00:39:00,VALID,918.212,VALID,0,VALID,99.0084,VALID,0,VALID,19.1903,VALID,293,VALID,0.665104,
2003-09-26, 00:40:00,VALID,918.2,VALID,0,VALID,99.0796,VALID,-0.0509425,VALID,19.1741,VALID,293,VALID,0.549609,
2003-09-26, 00:41:00,VALID,918.191,VALID,0,VALID,99.0326,VALID,-0.0169808,VALID,19.1518,VALID,293,VALID,0.348675,
2003-09-26, 00:42:00,VALID,918.185,VALID,0,VALID,99.0008,VALID,-0.0169808,VALID,19.1227,VALID,19,VALID,0.449929,
2003-09-26, 00:43:00,VALID,918.167,VALID,0,VALID,98.9486,VALID,-0.0339617,VALID,19.0874,VALID,48,VALID,0.591518,
2003-09-26, 00:44:00,VALID,918.161,VALID,0,VALID,98.9486,VALID,0,VALID,19.0487,VALID,53,VALID,0.614453,
2003-09-26, 00:45:00,VALID,918.156,VALID,0,VALID,99.0211,VALID,0,VALID,19.039,VALID,62,VALID,0.819196,
2003-09-26, 00:46:00,VALID,918.142,VALID,0,VALID,99.1063,VALID,0,VALID,19.0224,VALID,79,VALID,0.767401,
2003-09-26, 00:47:00,VALID,918.134,VALID,0,VALID,99.2386,VALID,0,VALID,19.0286,VALID,107,VALID,0.795313,
2003-09-26, 00:48:00,VALID,918.119,VALID,0,VALID,99.4102,VALID,-0.0849042,VALID,19.0663,VALID,124,VALID,0.708212,
2003-09-26, 00:49:00,VALID,918.093,VALID,0,VALID,99.4255,VALID,-0.118866,VALID,19.0787,VALID,115,VALID,0.822461,
2003-09-26, 00:50:00,VALID,918.072,VALID,0,VALID,99.4433,VALID,-0.101885,VALID,19.1092,VALID,111,VALID,0.69494,
2003-09-26, 00:51:00,VALID,918.051,VALID,0,VALID,99.4128,VALID,-0.118866,VALID,19.1048,VALID,111,VALID,0.386905,
2003-09-26, 00:52:00,VALID,918.032,VALID,0,VALID,99.3644,VALID,-0.118866,VALID,19.0921,VALID,111,VALID,0.274926,
2003-09-26, 00:53:00,VALID,918.013,VALID,0,VALID,99.3199,VALID,-0.118866,VALID,19.0886,VALID,110,VALID,0.303735,
2003-09-26, 00:54:00,VALID,917.992,VALID,0,VALID,99.3085,VALID,-0.135847,VALID,19.076,VALID,110,VALID,0.339286,
2003-09-26, 00:55:00,VALID,917.978,VALID,0,VALID,99.2182,VALID,-0.135847,VALID,19.0402,VALID,99,VALID,0.551042,
2003-09-26, 00:56:00,VALID,917.959,VALID,0,VALID,99.2843,VALID,-0.135847,VALID,19.0374,VALID,82,VALID,0.854911,
2003-09-26, 00:57:00,VALID,917.942,VALID,0,VALID,99.3428,VALID,-0.118866,VALID,19.0501,VALID,81,VALID,0.90904,
2003-09-26, 00:58:00,VALID,917.941,VALID,0,VALID,99.3632,VALID,-0.101885,VALID,19.0434,VALID,78,VALID,0.875,
2003-09-26, 00:59:00,VALID,917.927,VALID,0,VALID,99.3225,VALID,-0.135847,VALID,19.0536,VALID,75,VALID,0.803285,
2003-09-26, 01:00:00,VALID,917.916,VALID,0,VALID,99.278,VALID,-0.152827,VALID,19.0372,VALID,69,VALID,0.789572,
2003-09-26, 01:01:00,VALID,917.909,VALID,0,VALID,99.2729,VALID,-0.118866,VALID,19.034,VALID,64,VALID,0.644886,
2003-09-26, 01:02:00,VALID,917.919,VALID,0,VALID,99.222,VALID,-0.135847,VALID,19.0178,VALID,63,VALID,0.605945,
2003-09-26, 01:03:00,VALID,917.903,VALID,0,VALID,99.2513,VALID,-0.0339617,VALID,19.0166,VALID,63,VALID,0.56383,
2003-09-26, 01:04:00,VALID,917.903,VALID,0,VALID,99.2297,VALID,0,VALID,19.0261,VALID,63,VALID,0.495046,
2003-09-26, 01:05:00,VALID,917.903,VALID,0,VALID,99.1902,VALID,-0.0509425,VALID,19.0236,VALID,63,VALID,0.37965,
2003-09-26, 01:06:00,VALID,917.902,VALID,0,VALID,99.1648,VALID,-0.0339617,VALID,19.03,VALID,63,VALID,0.28125,
2003-09-26, 01:07:00,VALID,917.901,VALID,0,VALID,99.1203,VALID,-0.0339617,VALID,19.0166,VALID,63,VALID,0.253811,
2003-09-26, 01:08:00,VALID,917.894,VALID,0,VALID,99.0847,VALID,-0.0169808,VALID,19.0067,VALID,73,VALID,0.476935,
2003-09-26, 01:09:00,VALID,917.884,VALID,0,VALID,99.1508,VALID,-0.0339617,VALID,19.0166,VALID,113,VALID,0.701126,
2003-09-26, 01:10:00,VALID,917.882,VALID,0,VALID,99.236,VALID,-0.0339617,VALID,19.0099,VALID,126,VALID,0.815518,
2003-09-26, 01:11:00,VALID,917.874,VALID,0,VALID,99.264,VALID,-0.0509425,VALID,19.0233,VALID,127,VALID,0.721475,
2003-09-26, 01:12:00,VALID,917.861,VALID,0,VALID,99.2767,VALID,-0.0169808,VALID,19.0132,VALID,114,VALID,0.641369,
2003-09-26, 01:13:00,VALID,917.851,VALID,0,VALID,99.2907,VALID,-0.0169808,VALID,19.0194,VALID,98,VALID,0.462891,
2003-09-26, 01:14:00,VALID,917.826,VALID,0,VALID,99.2869,VALID,-0.0169808,VALID,19.0132,VALID,98,VALID,0.292878,
2003-09-26, 01:15:00,VALID,917.815,VALID,0,VALID,99.3263,VALID,-0.0509425,VALID,19.0229,VALID,98,VALID,0.173473,
2003-09-26, 01:16:00,VALID,917.805,VALID,0,VALID,99.2843,VALID,-0.0169808,VALID,19.0432,VALID,98,VALID,0.0351563,
2003-09-26, 01:17:00,VALID,917.785,VALID,0,VALID,99.2754,VALID,-0.0169808,VALID,19.0132,VALID,98,VALID,0.313772,
2003-09-26, 01:18:00,VALID,917.766,VALID,0,VALID,99.2843,VALID,-0.0339617,VALID,19.0296,VALID,100,VALID,0.46968,
2003-09-26, 01:19:00,VALID,917.752,VALID,0,VALID,99.325,VALID,-0.0169808,VALID,19.0231,VALID,104,VALID,0.466797,
2003-09-26, 01:20:00,VALID,917.738,VALID,0,VALID,99.4115,VALID,-0.0339617,VALID,19.036,VALID,123,VALID,0.56157,
2003-09-26, 01:21:00,VALID,917.713,VALID,0,VALID,99.4242,VALID,-0.0169808,VALID,19.036,VALID,118,VALID,0.56955,
2003-09-26, 01:22:00,VALID,917.706,VALID,0,VALID,99.4051,VALID,-0.0169808,VALID,19.039,VALID,112,VALID,0.396205,
2003-09-26, 01:23:00,VALID,917.706,VALID,0,VALID,99.4026,VALID,-0.0339617,VALID,19.03,VALID,110,VALID,0.310352,
2003-09-26, 01:24:00,VALID,917.698,VALID,0,VALID,99.3568,VALID,-0.0339617,VALID,18.9869,VALID,74,VALID,0.557706,
2003-09-26, 01:25:00,VALID,917.686,VALID,0,VALID,99.3238,VALID,-0.0679233,VALID,18.9747,VALID,68,VALID,0.674162,
2003-09-26, 01:26:00,VALID,917.688,VALID,0,VALID,99.4001,VALID,-0.0339617,VALID,18.9677,VALID,65,VALID,0.758358,
2003-09-26, 01:27:00,VALID,917.674,VALID,0,VALID,99.3962,VALID,-0.0509425,VALID,18.9846,VALID,63,VALID,0.629439,
2003-09-26, 01:28:00,VALID,917.677,VALID,0,VALID,99.367,VALID,-0.0339617,VALID,18.9647,VALID,59,VALID,0.445703,
2003-09-26, 01:29:00,VALID,917.654,VALID,0,VALID,99.3276,VALID,-0.0679233,VALID,18.9622,VALID,59,VALID,0.338986,
2003-09-26, 01:30:00,VALID,917.655,VALID,0,VALID,99.3416,VALID,-0.0339617,VALID,18.9588,VALID,59,VALID,0.52397,
2003-09-26, 01:31:00,VALID,917.638,VALID,0,VALID,99.4179,VALID,-0.0339617,VALID,18.9647,VALID,64,VALID,0.564317,
2003-09-26, 01:32:00,VALID,917.623,VALID,0,VALID,99.4446,VALID,0,VALID,18.9881,VALID,73,VALID,0.569041,
2003-09-26, 01:33:00,VALID,917.609,VALID,0,VALID,99.4293,VALID,0,VALID,18.9841,VALID,73,VALID,0.528274,
2003-09-26, 01:34:00,VALID,917.579,VALID,0,VALID,99.4115,VALID,0,VALID,18.9873,VALID,73,VALID,0.496548,
2003-09-26, 01:35:00,VALID,917.564,VALID,0,VALID,99.3441,VALID,-0.0509425,VALID,18.9841,VALID,63,VALID,0.56157,
2003-09-26, 01:36:00,VALID,917.551,VALID,0,VALID,99.2729,VALID,-0.0339617,VALID,18.961,VALID,48,VALID,0.513021,
2003-09-26, 01:37:00,VALID,917.537,VALID,0,VALID,99.2131,VALID,-0.0339617,VALID,18.9588,VALID,48,VALID,0.468572,
2003-09-26, 01:38:00,VALID,917.522,VALID,0,VALID,99.1991,VALID,-0.0169808,VALID,18.9558,VALID,51,VALID,0.478561,
2003-09-26, 01:39:00,VALID,917.503,VALID,0,VALID,99.1648,VALID,-0.0339617,VALID,18.9387,VALID,52,VALID,0.511814,
2003-09-26, 01:40:00,VALID,917.487,VALID,0,VALID,99.1012,VALID,-0.0169808,VALID,18.9193,VALID,52,VALID,0.465511,
2003-09-26, 01:41:00,VALID,917.476,VALID,0,VALID,99.0567,VALID,-0.0509425,VALID,18.9073,VALID,52,VALID,0.484747,
2003-09-26, 01:42:00,VALID,917.468,VALID,0,VALID,99.0593,VALID,0,VALID,18.881,VALID,52,VALID,0.445313,
2003-09-26, 01:43:01,VALID,917.438,VALID,0,VALID,99.0694,VALID,-0.0339617,VALID,18.8743,VALID,52,VALID,0.314215,
2003-09-26, 01:44:00,VALID,917.416,VALID,0,VALID,99.0974,VALID,-0.0169808,VALID,18.8547,VALID,52,VALID,0.366997,
2003-09-26, 01:45:00,VALID,917.408,VALID,0,VALID,99.1941,VALID,-0.0169808,VALID,18.8646,VALID,72,VALID,0.466933,
2003-09-26, 01:46:00,VALID,917.385,VALID,0,VALID,99.3632,VALID,0,VALID,18.8875,VALID,101,VALID,0.640625,
2003-09-26, 01:47:00,VALID,917.367,VALID,0,VALID,99.3823,VALID,0,VALID,18.9133,VALID,102,VALID,0.601918,
2003-09-26, 01:48:00,VALID,917.343,VALID,0,VALID,99.3581,VALID,0,VALID,18.9161,VALID,105,VALID,0.658794,
2003-09-26, 01:49:00,VALID,917.339,VALID,0,VALID,99.3047,VALID,0,VALID,18.9193,VALID,105,VALID,0.459896,
2003-09-26, 01:50:00,VALID,917.307,VALID,0,VALID,99.2716,VALID,0,VALID,18.9165,VALID,105,VALID,0.122954,
2003-09-26, 01:51:00,VALID,917.296,VALID,0,VALID,99.208,VALID,-0.0169808,VALID,18.9076,VALID,105,VALID,0,
2003-09-26, 01:52:00,VALID,917.284,VALID,0,VALID,99.1775,VALID,-0.0679233,VALID,18.8942,VALID,105,VALID,0,
2003-09-26, 01:53:00,VALID,917.264,VALID,0,VALID,99.1674,VALID,-0.0169808,VALID,18.8845,VALID,105,VALID,0,
2003-09-26, 01:54:00,VALID,917.241,VALID,0,VALID,99.1686,VALID,-0.0169808,VALID,18.8882,VALID,105,VALID,0,
2003-09-26, 01:55:00,VALID,917.225,VALID,0,VALID,99.1712,VALID,-0.0509425,VALID,18.8716,VALID,105,VALID,0,
2003-09-26, 01:56:00,VALID,917.219,VALID,0,VALID,99.1686,VALID,-0.0679233,VALID,18.8716,VALID,105,VALID,0,
2003-09-26, 01:57:00,VALID,917.188,VALID,0,VALID,99.1737,VALID,-0.0509425,VALID,18.8788,VALID,105,VALID,0,
2003-09-26, 01:58:00,VALID,917.183,VALID,0,VALID,99.175,VALID,-0.0169808,VALID,18.8619,VALID,105,VALID,0.303267,
2003-09-26, 01:59:00,VALID,917.162,VALID,0,VALID,99.1724,VALID,-0.0169808,VALID,18.8624,VALID,95,VALID,0.553597,
2003-09-26, 02:00:01,VALID,917.146,VALID,0,VALID,99.1635,VALID,-0.0339617,VALID,18.8423,VALID,77,VALID,0.746761,
2003-09-26, 02:01:00,VALID,917.132,VALID,0,VALID,99.1305,VALID,-0.0169808,VALID,18.8559,VALID,77,VALID,0.617733,
2003-09-26, 02:02:00,VALID,917.112,VALID,0,VALID,99.0898,VALID,-0.0849042,VALID,18.8425,VALID,81,VALID,0.527344,
2003-09-26, 02:03:00,VALID,917.104,VALID,0,VALID,99.1139,VALID,-0.0679233,VALID,18.8326,VALID,100,VALID,0.698361,
2003-09-26, 02:04:01,VALID,917.088,VALID,0,VALID,99.1152,VALID,-0.0509425,VALID,18.8462,VALID,100,VALID,0.846946,
2003-09-26, 02:05:01,VALID,917.063,VALID,0,VALID,99.0733,VALID,-0.0339617,VALID,18.8425,VALID,108,VALID,0.971839,
2003-09-26, 02:06:00,VALID,917.051,VALID,0,VALID,99.0071,VALID,-0.0169808,VALID,18.852,VALID,119,VALID,1.14551,
2003-09-26, 02:07:00,VALID,917.052,VALID,0,VALID,98.9397,VALID,-0.0339617,VALID,18.8688,VALID,118,VALID,1.10574,
2003-09-26, 02:08:01,VALID,917.028,VALID,0,VALID,98.894,VALID,-0.0339617,VALID,18.8718,VALID,118,VALID,1.17871,
2003-09-26, 02:09:01,VALID,917.013,VALID,0,VALID,98.8622,VALID,-0.0339617,VALID,18.8649,VALID,120,VALID,1.15729,
2003-09-26, 02:10:01,VALID,916.985,VALID,0,VALID,98.8533,VALID,-0.0169808,VALID,18.8679,VALID,125,VALID,1.15425,
2003-09-26, 02:11:00,VALID,916.98,VALID,0,VALID,98.8609,VALID,-0.0509425,VALID,18.875,VALID,130,VALID,1.03962,
2003-09-26, 02:12:00,VALID,916.974,VALID,0,VALID,98.9537,VALID,-0.0169808,VALID,18.8785,VALID,132,VALID,1.15848,
2003-09-26, 02:13:00,VALID,916.95,VALID,0,VALID,99.0694,VALID,-0.0679233,VALID,18.9016,VALID,140,VALID,0.814276,
2003-09-26, 02:14:00,VALID,916.945,VALID,0,VALID,99.1483,VALID,-0.0339617,VALID,18.9041,VALID,129,VALID,0.97619,
2003-09-26, 02:15:00,VALID,916.94,VALID,0,VALID,99.2157,VALID,-0.0169808,VALID,18.9041,VALID,132,VALID,0.969703,
2003-09-26, 02:16:00,VALID,916.931,VALID,0,VALID,99.2767,VALID,-0.0339617,VALID,18.8877,VALID,131,VALID,0.94029,
2003-09-26, 02:17:01,VALID,916.912,VALID,0,VALID,99.3581,VALID,-0.0509425,VALID,18.8852,VALID,136,VALID,1.03498,
2003-09-26, 02:18:00,VALID,916.913,VALID,0,VALID,99.4077,VALID,0.0849042,VALID,18.8672,VALID,125,VALID,0.747738,
2003-09-26, 02:19:00,VALID,916.899,VALID,0,VALID,99.5031,VALID,0.0679233,VALID,18.8542,VALID,133,VALID,1.03462,
2003-09-26, 02:20:00,VALID,916.897,VALID,0,VALID,99.615,VALID,0.0509425,VALID,18.8508,VALID,129,VALID,0.815267,
2003-09-26, 02:21:00,VALID,916.88,VALID,0,VALID,99.6493,VALID,0.0679233,VALID,18.8379,VALID,126,VALID,1.03416,
2003-09-26, 02:22:01,VALID,916.87,VALID,0,VALID,99.7078,VALID,0.101885,VALID,18.8317,VALID,127,VALID,0.966704,
2003-09-26, 02:23:00,VALID,916.85,VALID,0,VALID,99.7714,VALID,0.0679233,VALID,18.8284,VALID,124,VALID,0.551525,
2003-09-26, 02:24:00,VALID,916.833,VALID,0,VALID,99.793,VALID,0.0849042,VALID,18.8222,VALID,109,VALID,0.553445,
2003-09-26, 02:25:00,VALID,916.823,VALID,0,VALID,99.7815,VALID,0.101885,VALID,18.8116,VALID,110,VALID,0.410689,
2003-09-26, 02:26:00,VALID,916.816,VALID,0,VALID,99.7866,VALID,0.0849042,VALID,18.7894,VALID,114,VALID,0.75362,
2003-09-26, 02:27:00,VALID,916.819,VALID,0,VALID,99.7968,VALID,0.0849042,VALID,18.7631,VALID,124,VALID,0.911337,
2003-09-26, 02:28:01,VALID,916.805,VALID,0,VALID,99.854,VALID,0.101885,VALID,18.7636,VALID,130,VALID,0.865748,
2003-09-26, 02:29:00,VALID,916.798,VALID,0,VALID,99.8973,VALID,0.101885,VALID,18.7701,VALID,132,VALID,0.856001,
2003-09-26, 02:30:01,VALID,916.785,VALID,0,VALID,99.9214,VALID,0.101885,VALID,18.7763,VALID,130,VALID,0.922724,
2003-09-26, 02:31:01,VALID,916.767,VALID,0,VALID,99.929,VALID,0.0849042,VALID,18.7897,VALID,130,VALID,0.837023,
2003-09-26, 02:32:00,VALID,916.758,VALID,0,VALID,99.9316,VALID,0.0509425,VALID,18.7865,VALID,127,VALID,0.797066,
2003-09-26, 02:33:00,VALID,916.739,VALID,0,VALID,99.9151,VALID,-0.0169808,VALID,18.7911,VALID,119,VALID,0.673958,
2003-09-26, 02:34:00,VALID,916.71,VALID,0,VALID,99.8845,VALID,-0.0169808,VALID,18.7872,VALID,113,VALID,0.681784,
2003-09-26, 02:35:01,VALID,916.692,VALID,0,VALID,99.8578,VALID,-0.0169808,VALID,18.7943,VALID,110,VALID,0.71875,
2003-09-26, 02:36:01,VALID,916.665,VALID,0,VALID,99.84,VALID,-0.0339617,VALID,18.8169,VALID,101,VALID,0.84468,
2003-09-26, 02:37:00,VALID,916.651,VALID,0,VALID,99.7726,VALID,-0.0509425,VALID,18.8467,VALID,101,VALID,0.729725,
2003-09-26, 02:38:01,VALID,916.642,VALID,0,VALID,99.6824,VALID,-0.0169808,VALID,18.8487,VALID,103,VALID,0.744318,
2003-09-26, 02:39:00,VALID,916.629,VALID,0,VALID,99.5908,VALID,-0.0169808,VALID,18.8713,VALID,107,VALID,0.807546,
2003-09-26, 02:40:00,VALID,916.607,VALID,0,VALID,99.4547,VALID,-0.0679233,VALID,18.9078,VALID,110,VALID,0.783668,
2003-09-26, 02:41:00,VALID,916.602,VALID,0,VALID,99.3314,VALID,0,VALID,18.917,VALID,106,VALID,0.914931,
2003-09-26, 02:42:01,VALID,916.591,VALID,0,VALID,99.1661,VALID,-0.0509425,VALID,18.9302,VALID,114,VALID,0.9288,
2003-09-26, 02:43:00,VALID,916.581,VALID,0,VALID,98.9728,VALID,-0.0169808,VALID,18.9269,VALID,116,VALID,0.804874,
2003-09-26, 02:44:00,VALID,916.575,VALID,0,VALID,98.8024,VALID,0,VALID,18.92,VALID,118,VALID,0.845567,
2003-09-26, 02:45:00,VALID,916.576,VALID,0,VALID,98.674,VALID,-0.0169808,VALID,18.8838,VALID,123,VALID,0.798781,
2003-09-26, 02:46:01,VALID,916.579,VALID,0,VALID,98.5583,VALID,-0.0339617,VALID,18.8681,VALID,125,VALID,0.903963,
2003-09-26, 02:47:00,VALID,916.582,VALID,0,VALID,98.6269,VALID,0,VALID,18.8492,VALID,133,VALID,1.00818,
2003-09-26, 02:48:01,VALID,916.583,VALID,0,VALID,98.7274,VALID,-0.0169808,VALID,18.8495,VALID,124,VALID,1.00586,
2003-09-26, 02:49:00,VALID,916.578,VALID,0,VALID,98.7922,VALID,-0.0169808,VALID,18.8296,VALID,124,VALID,1.24746,
2003-09-26, 02:50:00,VALID,916.573,VALID,0,VALID,98.9156,VALID,0,VALID,18.8236,VALID,124,VALID,1.25694,
2003-09-26, 02:51:00,VALID,916.583,VALID,0,VALID,99.0313,VALID,-0.0169808,VALID,18.8072,VALID,130,VALID,1.17525,
2003-09-26, 02:52:01,VALID,916.581,VALID,0,VALID,99.1546,VALID,-0.0169808,VALID,18.8105,VALID,128,VALID,1.06339,
2003-09-26, 02:53:01,VALID,916.572,VALID,0,VALID,99.2195,VALID,-0.0339617,VALID,18.7779,VALID,127,VALID,1.13834,
2003-09-26, 02:54:00,VALID,916.557,VALID,0,VALID,99.2907,VALID,0,VALID,18.7715,VALID,129,VALID,1.22911,
2003-09-26, 02:55:00,VALID,916.533,VALID,0,VALID,99.325,VALID,-0.0339617,VALID,18.7489,VALID,132,VALID,1.1305,
2003-09-26, 02:56:01,VALID,916.529,VALID,0,VALID,99.4395,VALID,0,VALID,18.7298,VALID,133,VALID,1.35442,
2003-09-26, 02:57:00,VALID,916.512,VALID,0,VALID,99.5387,VALID,-0.0509425,VALID,18.7233,VALID,125,VALID,0.955031,
2003-09-26, 02:58:00,VALID,916.503,VALID,0,VALID,99.5005,VALID,0,VALID,18.7069,VALID,113,VALID,0.722124,
2003-09-26, 02:59:01,VALID,916.488,VALID,0,VALID,99.5298,VALID,0,VALID,18.6716,VALID,120,VALID,0.789253,
2003-09-26, 03:00:00,VALID,916.485,VALID,0,VALID,99.6251,VALID,-0.0169808,VALID,18.6654,VALID,117,VALID,0.744318,
2003-09-26, 03:01:00,VALID,916.471,VALID,0,VALID,99.6773,VALID,-0.0169808,VALID,18.6557,VALID,121,VALID,0.962674,
2003-09-26, 03:02:00,VALID,916.476,VALID,0,VALID,99.7408,VALID,0,VALID,18.6553,VALID,118,VALID,1.11523,
2003-09-26, 03:03:01,VALID,916.462,VALID,0,VALID,99.7777,VALID,-0.0169808,VALID,18.6679,VALID,119,VALID,1.20833,
2003-09-26, 03:04:00,VALID,916.457,VALID,0,VALID,99.8159,VALID,-0.0339617,VALID,18.6689,VALID,127,VALID,1.2167,
2003-09-26, 03:05:00,VALID,916.45,VALID,0,VALID,99.8121,VALID,-0.0169808,VALID,18.6516,VALID,123,VALID,1.34648,
2003-09-26, 03:06:00,VALID,916.448,VALID,0,VALID,99.8451,VALID,-0.0339617,VALID,18.6421,VALID,123,VALID,1.3407,
2003-09-26, 03:07:01,VALID,916.442,VALID,0,VALID,99.8642,VALID,-0.0169808,VALID,18.6324,VALID,125,VALID,1.01381,
2003-09-26, 03:08:00,VALID,916.447,VALID,0,VALID,99.8973,VALID,-0.0169808,VALID,18.6232,VALID,130,VALID,1.29501,
2003-09-26, 03:09:01,VALID,916.436,VALID,0,VALID,99.9341,VALID,-0.0339617,VALID,18.6301,VALID,124,VALID,0.998884,
2003-09-26, 03:10:00,VALID,916.431,VALID,0,VALID,99.9456,VALID,-0.0169808,VALID,18.6036,VALID,114,VALID,1.26048,
2003-09-26, 03:11:00,VALID,916.431,VALID,0,VALID,99.9748,VALID,-0.0339617,VALID,18.6041,VALID,118,VALID,1.34792,
2003-09-26, 03:12:01,VALID,916.429,VALID,0,VALID,100,VALID,-0.0339617,VALID,18.6006,VALID,126,VALID,1.38058,
2003-09-26, 03:13:01,VALID,916.418,VALID,0,VALID,100,VALID,-0.0169808,VALID,18.5875,VALID,115,VALID,1.30735,
2003-09-26, 03:14:00,VALID,916.41,VALID,0,VALID,100,VALID,-0.0339617,VALID,18.6041,VALID,117,VALID,1.33614,
2003-09-26, 03:15:01,VALID,916.415,VALID,0,VALID,100,VALID,-0.0339617,VALID,18.6103,VALID,111,VALID,1.356,
2003-09-26, 03:16:00,VALID,916.404,VALID,0,VALID,100,VALID,-0.0339617,VALID,18.6398,VALID,117,VALID,1.6766,
2003-09-26, 03:17:00,VALID,916.396,VALID,0,VALID,100,VALID,-0.0169808,VALID,18.6657,VALID,127,VALID,1.33326,
2003-09-26, 03:18:00,VALID,916.392,VALID,0,VALID,100,VALID,-0.0169808,VALID,18.6915,VALID,126,VALID,1.35316,
2003-09-26, 03:19:00,VALID,916.393,VALID,0,VALID,100,VALID,0,VALID,18.6979,VALID,124,VALID,1.16313,
2003-09-26, 03:20:01,VALID,916.369,VALID,0,VALID,100,VALID,-0.0169808,VALID,18.7109,VALID,121,VALID,1.03242,
2003-09-26, 03:21:00,VALID,916.367,VALID,0,VALID,100,VALID,-0.0339617,VALID,18.7168,VALID,123,VALID,1.26399,
2003-09-26, 03:22:00,VALID,916.356,VALID,0,VALID,100,VALID,-0.0169808,VALID,18.73,VALID,128,VALID,1.10849,
2003-09-26, 03:23:01,VALID,916.346,VALID,0,VALID,100,VALID,-0.0169808,VALID,18.7394,VALID,127,VALID,0.974029,
2003-09-26, 03:24:01,VALID,916.346,VALID,0,VALID,100,VALID,-0.0169808,VALID,18.7461,VALID,128,VALID,1.23158,
2003-09-26, 03:25:01,VALID,916.338,VALID,0,VALID,100,VALID,0.0169808,VALID,18.7367,VALID,120,VALID,1.10955,
2003-09-26, 03:26:00,VALID,916.346,VALID,0,VALID,100,VALID,-0.0169808,VALID,18.7231,VALID,118,VALID,1.52195,
2003-09-26, 03:27:00,VALID,916.35,VALID,0,VALID,100,VALID,-0.0169808,VALID,18.7231,VALID,118,VALID,1.36464,
2003-09-26, 03:28:01,VALID,916.365,VALID,0,VALID,100,VALID,-0.0169808,VALID,18.7399,VALID,115,VALID,1.2976,
2003-09-26, 03:29:01,VALID,916.371,VALID,0,VALID,100,VALID,-0.0169808,VALID,18.7429,VALID,106,VALID,1.15625,
2003-09-26, 03:30:00,VALID,916.389,VALID,0,VALID,100,VALID,-0.0169808,VALID,18.7168,VALID,95,VALID,1.17283,
2003-09-26, 03:31:00,VALID,916.4,VALID,0,VALID,100,VALID,-0.0169808,VALID,18.7109,VALID,90,VALID,1.11355,
2003-09-26, 03:32:01,VALID,916.409,VALID,0,VALID,100,VALID,0,VALID,18.6905,VALID,96,VALID,1.04918,
2003-09-26, 03:33:01,VALID,916.405,VALID,0,VALID,100,VALID,0,VALID,18.7104,VALID,97,VALID,0.943714,
2003-09-26, 03:34:00,VALID,916.424,VALID,0,VALID,100,VALID,-0.0169808,VALID,18.7074,VALID,94,VALID,0.930556,
2003-09-26, 03:35:00,VALID,916.417,VALID,0,VALID,100,VALID,-0.0169808,VALID,18.6878,VALID,100,VALID,1.098,